This demonstration page uses our WeatherBlox Daily Observations layout. Learn more.

Left ArrowRight Arrow

39.92423, -83.80882

Hourly Observations for May 9, 2020

Temp ( °F °C ) Dew Point ( °F °C ) Humidity (%) Winds ( mph kmh ) Pressure ( in mb ) Visibility ( mi km ) Precip ( " mm )
12:56 am 00:56 Clear 34 1.1 22 -5.6 61 61 NW 13 20 30.13 1020 10 16.0934 0 0
1:56 am 01:56 Clear 32 0 22 -5.6 66 66 NW 6 9 30.13 1020 10 16.0934 0 0
2:56 am 02:56 Clear 30 -1.1 24 -4.4 79 79 W 8 13 30.13 1020 10 16.0934 0 0
3:56 am 03:56 Clear 30 -1.1 22 -5.6 72 72 W 10 17 30.14 1021 10 16.0934 0 0
4:56 am 04:56 Clear 29 -1.7 22 -5.6 75 75 WNW 9 15 30.15 1021 10 16.0934 0 0
5:56 am 05:56 Clear 28 -2.2 21 -6.1 75 75 W 9 15 30.17 1022 10 16.0934 0 0
6:56 am 06:56 Sunny 29 -1.7 21 -6.1 72 72 W 8 13 30.18 1022 10 16.0934 0 0
7:56 am 07:56 Sunny 32 0 21 -6.1 64 64 WNW 12 19 30.19 1022 10 16.0934 0 0
8:56 am 08:56 Sunny 35 1.7 20 -6.7 54 54 WNW 13 20 30.21 1023 10 16.0934 0 0
9:56 am 09:56 Sunny 38 3.3 20 -6.7 48 48 NW 16 26 30.24 1024 10 16.0934 0 0
10:56 am 10:56 Mostly Sunny 40 4.4 20 -6.7 45 45 NW 16 26 30.25 1024 10 16.0934 0 0
11:56 am 11:56 Partly Cloudy 42 5.6 23 -5 47 47 NW 20 31 30.26 1025 10 16.0934 0 0
12:56 pm 12:56 Partly Cloudy 43 6.1 22 -5.6 43 43 WNW 10 17 30.26 1025 10 16.0934 0 0
1:56 pm 13:56 Mostly Cloudy 46 7.8 26 -3.3 46 46 W 13 20 30.25 1024 10 16.0934 0 0
2:56 pm 14:56 Cloudy 47 8.3 24 -4.4 41 41 W 12 19 30.24 1024 10 16.0934 0 0
3:56 pm 15:56 Mostly Cloudy 48 8.9 24 -4.4 39 39 W 15 24 30.22 1023 10 16.0934 0 0
4:56 pm 16:56 Mostly Sunny 50 10 23 -5 35 35 W 18 30 30.2 1023 10 16.0934 0 0
5:56 pm 17:56 Partly Cloudy 50 10 24 -4.4 36 36 WNW 16 26 30.19 1023 10 16.0934 0 0
6:56 pm 18:56 Sunny 50 10 23 -5 35 35 W 14 22 30.18 1022 10 16.0934 0 0
7:56 pm 19:56 Sunny 49 9.4 23 -5 36 36 W 10 17 30.18 1022 10 16.0934 0 0
8:56 pm 20:56 Clear 45 7.2 28 -2.2 52 52 WSW 7 11 30.2 1023 10 16.0934 0 0
9:56 pm 21:56 Clear 43 6.1 27 -2.8 53 53 SW 6 9 30.22 1023 10 16.0934 0 0
10:56 pm 22:56 Clear 42 5.6 26 -3.3 53 53 SW 7 11 30.22 1023 10 16.0934 0 0
11:56 pm 23:56 Clear 40 4.4 27 -2.8 60 60 SSW 7 11 30.22 1023 10 16.0934 0.04 1.016

Powered by AerisWeather